Time,TemperatureF,DewpointF,PressureIn,WindDirection,WindDirectionDegrees,WindSpeedMPH,WindSpeedGustMPH,Humidity,HourlyPrecipIn,Conditions,Clouds,dailyrainin,SoftwareType,DateUTC
2013-02-14 00:04:00,33.5,24.8,29.65,ESE,121,0.0,0.0,70,0.00,,OVC095,-99.99,VWS V12.07,2013-02-14 05:04:00,
2013-02-14 00:05:00,33.5,24.8,29.65,ESE,121,0.0,0.0,70,0.00,,OVC095,-99.99,VWS V12.07,2013-02-14 05:05:00,
2013-02-14 00:12:00,33.4,25.7,29.65,ESE,121,0.0,0.0,73,0.00,,OVC095,-99.99,VWS V12.07,2013-02-14 05:12:00,
2013-02-14 00:22:00,33.1,24.4,29.65,ESE,121,0.0,0.0,70,0.00,,OVC095,-99.99,VWS V12.07,2013-02-14 05:22:00,
2013-02-14 00:33:00,32.7,24.0,29.66,ESE,121,0.0,0.0,70,0.00,,OVC095,-99.99,VWS V12.07,2013-02-14 05:33:00,
2013-02-14 00:42:00,32.4,24.4,29.66,ESE,121,0.0,0.0,72,0.00,,OVC095,-99.99,VWS V12.07,2013-02-14 05:42:00,
2013-02-14 00:52:00,32.2,24.9,29.66,ESE,121,0.0,0.0,74,0.00,,OVC095,-99.99,VWS V12.07,2013-02-14 05:52:00,
2013-02-14 01:03:00,31.9,25.5,29.67,ESE,121,0.0,0.0,77,0.00,,OVC095,-99.99,VWS V12.07,2013-02-14 06:03:00,
2013-02-14 01:12:00,31.9,25.5,29.67,ESE,121,0.0,0.0,77,0.00,,OVC095,-99.99,VWS V12.07,2013-02-14 06:12:00,
2013-02-14 01:22:00,31.8,26.0,29.66,ESE,121,0.0,0.0,79,0.00,,OVC095,-99.99,VWS V12.07,2013-02-14 06:22:00,
2013-02-14 01:33:00,31.6,25.9,29.67,ESE,121,0.0,0.0,79,0.00,,OVC095,-99.99,VWS V12.07,2013-02-14 06:33:00,
2013-02-14 01:42:00,31.5,25.4,29.67,ESE,121,0.0,0.0,78,0.00,,OVC095,-99.99,VWS V12.07,2013-02-14 06:42:00,
2013-02-14 01:52:00,31.5,25.8,29.68,ESE,121,0.0,0.0,79,0.00,,OVC095,-99.99,VWS V12.07,2013-02-14 06:52:00,
2013-02-14 02:04:00,31.3,25.9,29.68,ESE,121,0.0,0.0,80,0.00,,OVC095,-99.99,VWS V12.07,2013-02-14 07:04:00,
2013-02-14 02:12:00,31.3,25.9,29.68,ESE,121,0.0,0.0,80,0.00,,OVC095,-99.99,VWS V12.07,2013-02-14 07:12:00,
2013-02-14 02:22:00,31.2,25.8,29.69,ESE,121,0.0,0.0,80,0.00,,OVC095,-99.99,VWS V12.07,2013-02-14 07:22:00,
2013-02-14 02:33:00,31.3,26.2,29.70,ESE,121,0.0,0.0,81,0.00,,OVC095,-99.99,VWS V12.07,2013-02-14 07:33:00,
2013-02-14 02:42:00,31.2,26.1,29.70,ESE,121,0.0,0.0,81,0.00,,OVC095,-99.99,VWS V12.07,2013-02-14 07:42:00,
2013-02-14 02:52:00,31.0,25.9,29.71,ESE,121,0.0,0.0,81,0.00,,OVC095,-99.99,VWS V12.07,2013-02-14 07:52:00,
2013-02-14 03:03:00,30.9,26.1,29.71,ESE,121,0.0,0.0,82,0.00,,OVC095,-99.99,VWS V12.07,2013-02-14 08:03:00,
2013-02-14 03:12:00,30.9,26.4,29.71,ESE,121,0.0,0.0,83,0.00,,OVC095,-99.99,VWS V12.07,2013-02-14 08:12:00,
2013-02-14 03:22:00,30.7,25.9,29.72,ESE,121,0.0,0.0,82,0.00,,OVC095,-99.99,VWS V12.07,2013-02-14 08:22:00,
2013-02-14 03:33:00,30.4,25.6,29.72,ESE,121,0.0,0.0,82,0.00,,OVC095,-99.99,VWS V12.07,2013-02-14 08:33:00,
2013-02-14 03:42:00,30.1,24.7,29.72,ESE,121,0.0,0.0,80,0.00,,OVC095,-99.99,VWS V12.07,2013-02-14 08:42:00,
2013-02-14 03:52:00,29.7,24.6,29.72,ESE,121,0.0,0.0,81,0.00,,OVC095,-99.99,VWS V12.07,2013-02-14 08:52:00,
2013-02-14 04:04:00,29.1,24.0,29.73,ESE,121,0.0,0.0,81,0.00,,OVC095,-99.99,VWS V12.07,2013-02-14 09:04:00,
2013-02-14 04:12:00,28.8,24.0,29.73,ESE,121,0.0,0.0,82,0.00,,OVC095,-99.99,VWS V12.07,2013-02-14 09:12:00,
2013-02-14 04:22:00,28.2,23.1,29.73,ESE,121,0.0,0.0,81,0.00,,OVC095,-99.99,VWS V12.07,2013-02-14 09:22:00,
2013-02-14 04:33:00,27.5,22.5,29.74,ESE,121,0.0,0.0,81,0.00,,OVC095,-99.99,VWS V12.07,2013-02-14 09:33:00,
2013-02-14 04:42:00,27.2,22.4,29.74,ESE,121,0.0,0.0,82,0.00,,OVC095,-99.99,VWS V12.07,2013-02-14 09:42:00,
2013-02-14 04:52:00,26.9,22.4,29.75,ESE,121,0.0,0.0,83,0.00,,OVC095,-99.99,VWS V12.07,2013-02-14 09:52:00,
2013-02-14 05:03:00,26.3,21.9,29.75,ESE,121,0.0,0.0,83,0.00,,OVC095,-99.99,VWS V12.07,2013-02-14 10:03:00,
2013-02-14 05:12:00,26.0,21.8,29.75,ESE,121,0.0,0.0,84,0.00,,OVC095,-99.99,VWS V12.07,2013-02-14 10:12:00,
2013-02-14 05:22:00,25.8,21.6,29.75,ESE,121,0.0,0.0,84,0.00,,OVC095,-99.99,VWS V12.07,2013-02-14 10:22:00,
2013-02-14 05:33:00,25.4,21.0,29.76,ESE,121,0.0,0.0,83,0.00,,OVC095,-99.99,VWS V12.07,2013-02-14 10:33:00,
2013-02-14 05:42:00,25.3,21.4,29.76,ESE,121,0.0,0.0,85,0.00,,OVC095,-99.99,VWS V12.07,2013-02-14 10:42:00,
2013-02-14 05:52:00,25.1,21.2,29.76,ESE,121,0.0,0.0,85,0.00,,OVC095,-99.99,VWS V12.07,2013-02-14 10:52:00,
2013-02-14 06:04:00,25.0,21.1,29.77,ESE,121,0.0,0.0,85,0.00,,OVC095,-99.99,VWS V12.07,2013-02-14 11:04:00,
2013-02-14 06:12:00,24.7,20.8,29.77,ESE,121,0.0,0.0,85,0.00,,OVC095,-99.99,VWS V12.07,2013-02-14 11:12:00,
2013-02-14 06:22:00,24.2,20.6,29.77,ESE,121,0.0,0.0,86,0.00,,OVC095,-99.99,VWS V12.07,2013-02-14 11:22:00,
2013-02-14 06:34:00,23.9,20.1,29.78,ESE,121,0.0,0.0,85,0.00,,OVC095,-99.99,VWS V12.07,2013-02-14 11:34:00,
2013-02-14 06:42:00,23.8,20.2,29.78,ESE,121,0.0,0.0,86,0.00,,OVC095,-99.99,VWS V12.07,2013-02-14 11:42:00,
2013-02-14 06:52:00,23.8,20.2,29.79,ESE,121,0.0,0.0,86,0.00,,OVC095,-99.99,VWS V12.07,2013-02-14 11:52:00,
2013-02-14 07:03:00,23.5,19.9,29.80,ESE,121,0.0,0.0,86,0.00,,OVC095,-99.99,VWS V12.07,2013-02-14 12:03:00,
2013-02-14 07:12:00,23.5,20.2,29.80,ESE,121,0.0,0.0,87,0.00,,OVC095,-99.99,VWS V12.07,2013-02-14 12:12:00,
2013-02-14 07:22:00,23.6,20.3,29.81,ESE,121,0.0,0.0,87,0.00,,OVC095,-99.99,VWS V12.07,2013-02-14 12:22:00,
2013-02-14 07:33:00,23.8,20.2,29.82,ESE,121,0.0,0.0,86,0.00,,OVC095,-99.99,VWS V12.07,2013-02-14 12:33:00,
2013-02-14 07:42:00,23.5,19.9,29.82,ESE,121,0.0,0.0,86,0.00,,OVC095,-99.99,VWS V12.07,2013-02-14 12:42:00,
2013-02-14 07:52:00,23.3,19.7,29.84,ESE,121,0.0,0.0,86,0.00,,OVC095,-99.99,VWS V12.07,2013-02-14 12:52:00,
2013-02-14 08:04:00,23.3,20.0,29.84,ESE,121,0.0,0.0,87,0.00,,OVC095,-99.99,VWS V12.07,2013-02-14 13:04:00,
2013-02-14 08:12:00,23.6,20.3,29.84,ESE,121,0.0,0.0,87,0.00,,OVC095,-99.99,VWS V12.07,2013-02-14 13:12:00,
2013-02-14 08:22:00,23.9,20.6,29.85,ESE,121,0.0,0.0,87,0.00,,OVC095,-99.99,VWS V12.07,2013-02-14 13:22:00,
2013-02-14 08:33:00,24.4,21.4,29.86,ESE,121,0.0,0.0,88,0.00,,OVC095,-99.99,VWS V12.07,2013-02-14 13:33:00,
2013-02-14 08:42:00,25.3,22.2,29.86,ESE,121,0.0,0.0,88,0.00,,OVC095,-99.99,VWS V12.07,2013-02-14 13:42:00,
2013-02-14 08:52:00,26.0,22.4,29.86,ESE,121,0.0,0.0,86,0.00,,OVC095,-99.99,VWS V12.07,2013-02-14 13:52:00,
2013-02-14 09:03:00,27.2,22.7,29.87,ESE,121,0.0,0.0,83,0.00,,OVC095,-99.99,VWS V12.07,2013-02-14 14:03:00,
2013-02-14 09:12:00,28.2,21.9,29.87,ESE,121,0.0,0.0,77,0.00,,OVC095,-99.99,VWS V12.07,2013-02-14 14:12:00,
2013-02-14 09:22:00,29.4,22.5,29.87,SSE,152,1.0,2.0,75,0.00,,OVC095,-99.99,VWS V12.07,2013-02-14 14:22:00,
2013-02-14 09:33:00,31.5,22.2,29.88,SSE,151,0.0,0.0,68,0.00,,OVC095,-99.99,VWS V12.07,2013-02-14 14:33:00,
2013-02-14 09:42:00,32.1,22.8,29.88,SSE,151,0.0,0.0,68,0.00,,OVC095,-99.99,VWS V12.07,2013-02-14 14:42:00,
2013-02-14 09:52:00,33.1,23.0,29.88,South,174,0.0,0.0,66,0.00,,OVC095,-99.99,VWS V12.07,2013-02-14 14:52:00,
2013-02-14 10:04:00,34.6,22.5,29.88,SW,224,0.0,0.0,61,0.00,,OVC095,-99.99,VWS V12.07,2013-02-14 15:04:00,
2013-02-14 10:12:00,35.6,23.1,29.88,North,0,3.0,3.0,60,0.00,,OVC095,-99.99,VWS V12.07,2013-02-14 15:12:00,
2013-02-14 10:22:00,36.6,23.2,29.88,North,349,0.0,3.0,58,0.00,,OVC095,-99.99,VWS V12.07,2013-02-14 15:22:00,
2013-02-14 10:34:00,37.5,23.2,29.88,North,349,0.0,0.0,56,0.00,,OVC095,-99.99,VWS V12.07,2013-02-14 15:34:00,
2013-02-14 10:42:00,38.3,23.1,29.88,North,350,0.0,0.0,54,0.00,,OVC095,-99.99,VWS V12.07,2013-02-14 15:42:00,
2013-02-14 10:52:00,39.3,23.6,29.88,WNW,298,0.0,3.0,53,0.00,,OVC095,-99.99,VWS V12.07,2013-02-14 15:52:00,
2013-02-14 11:03:00,39.8,23.6,29.88,WSW,250,1.0,5.0,52,0.00,,OVC095,-99.99,VWS V12.07,2013-02-14 16:03:00,
2013-02-14 11:12:00,39.8,24.1,29.88,SW,227,0.0,5.0,53,0.00,,OVC095,-99.99,VWS V12.07,2013-02-14 16:12:00,
2013-02-14 11:22:00,40.2,23.1,29.88,SSW,198,1.0,5.0,50,0.00,,OVC095,-99.99,VWS V12.07,2013-02-14 16:22:00,
2013-02-14 11:33:00,41.6,23.4,29.87,NW,313,0.0,1.0,48,0.00,,OVC095,-99.99,VWS V12.07,2013-02-14 16:33:00,
2013-02-14 11:42:00,41.9,23.7,29.87,NNW,330,2.0,3.0,48,0.00,,OVC095,-99.99,VWS V12.07,2013-02-14 16:42:00,
2013-02-14 11:52:00,42.1,24.8,29.87,SW,216,1.0,5.0,50,0.00,,OVC095,-99.99,VWS V12.07,2013-02-14 16:52:00,
2013-02-14 12:04:00,42.2,24.4,29.86,WSW,256,2.0,3.0,49,0.00,,OVC095,-99.99,VWS V12.07,2013-02-14 17:04:00,
2013-02-14 12:12:00,42.9,24.1,29.86,SSE,158,0.0,3.0,47,0.00,,OVC095,-99.99,VWS V12.07,2013-02-14 17:12:00,
2013-02-14 12:22:00,41.9,22.6,29.85,SSE,148,1.0,6.0,46,0.00,,OVC095,-99.99,VWS V12.07,2013-02-14 17:22:00,
2013-02-14 12:34:00,42.8,24.5,29.85,South,171,0.0,2.0,48,0.00,,OVC095,-99.99,VWS V12.07,2013-02-14 17:34:00,
2013-02-14 12:42:00,43.5,24.1,29.85,SE,141,0.0,2.0,46,0.00,,OVC095,-99.99,VWS V12.07,2013-02-14 17:42:00,
2013-02-14 12:52:00,44.2,24.2,29.85,WSW,246,0.0,3.0,45,0.00,,OVC095,-99.99,VWS V12.07,2013-02-14 17:52:00,
2013-02-14 13:03:00,44.2,25.3,29.85,SSE,165,2.0,3.0,47,0.00,,OVC095,-99.99,VWS V12.07,2013-02-14 18:03:00,
2013-02-14 13:12:00,45.1,24.0,29.85,SSW,209,0.0,3.0,43,0.00,,OVC095,-99.99,VWS V12.07,2013-02-14 18:12:00,
2013-02-14 13:22:00,43.9,22.9,29.85,SE,134,0.0,3.0,43,0.00,,OVC095,-99.99,VWS V12.07,2013-02-14 18:22:00,
2013-02-14 13:33:00,43.9,24.0,29.85,WNW,294,0.0,3.0,45,0.00,,OVC095,-99.99,VWS V12.07,2013-02-14 18:33:00,
2013-02-14 13:42:00,43.8,24.9,29.85,SW,236,2.0,3.0,47,0.00,,OVC095,-99.99,VWS V12.07,2013-02-14 18:42:00,
2013-02-14 13:52:00,44.2,23.1,29.85,NE,54,0.0,6.0,43,0.00,,OVC095,-99.99,VWS V12.07,2013-02-14 18:52:00,
2013-02-14 14:04:00,44.8,23.7,29.84,SSE,167,1.0,3.0,43,0.00,,OVC095,-99.99,VWS V12.07,2013-02-14 19:04:00,
2013-02-14 14:12:00,45.1,24.5,29.84,SSE,160,0.0,3.0,44,0.00,,OVC095,-99.99,VWS V12.07,2013-02-14 19:12:00,
2013-02-14 14:22:00,46.1,23.7,29.84,South,175,0.0,5.0,41,0.00,,OVC095,-99.99,VWS V12.07,2013-02-14 19:22:00,
2013-02-14 14:34:00,46.5,23.5,29.84,SE,143,0.0,5.0,40,0.00,,OVC095,-99.99,VWS V12.07,2013-02-14 19:34:00,
2013-02-14 14:42:00,45.1,23.4,29.84,ESE,116,8.0,8.0,42,0.00,,OVC095,-99.99,VWS V12.07,2013-02-14 19:42:00,
2013-02-14 14:52:00,44.5,24.0,29.85,SSE,154,2.0,8.0,44,0.00,,OVC095,-99.99,VWS V12.07,2013-02-14 19:52:00,
2013-02-14 15:03:00,44.6,24.0,29.85,SSE,151,5.0,6.0,44,0.00,,OVC095,-99.99,VWS V12.07,2013-02-14 20:03:00,
2013-02-14 15:12:00,45.2,24.0,29.85,SSE,152,1.0,6.0,43,0.00,,OVC095,-99.99,VWS V12.07,2013-02-14 20:12:00,
2013-02-14 15:22:00,44.6,24.0,29.85,ESE,117,3.0,7.0,44,0.00,,OVC095,-99.99,VWS V12.07,2013-02-14 20:22:00,
2013-02-14 15:33:00,44.2,23.7,29.85,SE,141,3.0,7.0,44,0.00,,OVC095,-99.99,VWS V12.07,2013-02-14 20:33:00,
2013-02-14 15:42:00,44.6,26.1,29.85,South,169,2.0,7.0,48,0.00,,OVC095,-99.99,VWS V12.07,2013-02-14 20:42:00,
2013-02-14 15:52:00,44.8,24.2,29.85,ESE,113,4.0,7.0,44,0.00,,OVC095,-99.99,VWS V12.07,2013-02-14 20:52:00,
2013-02-14 16:04:00,44.6,24.6,29.85,ESE,117,7.0,7.0,45,0.00,,OVC095,-99.99,VWS V12.07,2013-02-14 21:04:00,
2013-02-14 16:12:00,44.3,25.4,29.85,SSE,167,1.0,7.0,47,0.00,,OVC095,-99.99,VWS V12.07,2013-02-14 21:12:00,
2013-02-14 16:22:00,44.9,24.9,29.85,East,93,0.0,7.0,45,0.00,,OVC095,-99.99,VWS V12.07,2013-02-14 21:22:00,
2013-02-14 16:33:00,44.2,25.8,29.85,SSE,160,3.0,3.0,48,0.00,,OVC095,-99.99,VWS V12.07,2013-02-14 21:33:00,
2013-02-14 16:42:00,43.6,24.7,29.85,SSE,161,1.0,6.0,47,0.00,,OVC095,-99.99,VWS V12.07,2013-02-14 21:42:00,
2013-02-14 16:52:00,42.8,24.5,29.85,SSE,147,2.0,6.0,48,0.00,,OVC095,-99.99,VWS V12.07,2013-02-14 21:52:00,
2013-02-14 17:03:00,42.1,25.8,29.86,SSE,150,0.0,3.0,52,0.00,,OVC095,-99.99,VWS V12.07,2013-02-14 22:03:00,
2013-02-14 17:12:00,41.8,25.5,29.86,SSE,152,0.0,6.0,52,0.00,,OVC095,-99.99,VWS V12.07,2013-02-14 22:12:00,
2013-02-14 17:22:00,41.2,27.1,29.87,SSW,212,0.0,6.0,57,0.00,,OVC095,-99.99,VWS V12.07,2013-02-14 22:22:00,
2013-02-14 17:33:00,40.1,26.1,29.87,SW,227,0.0,0.0,57,0.00,,OVC095,-99.99,VWS V12.07,2013-02-14 22:33:00,
2013-02-14 17:42:00,39.6,25.6,29.87,SSE,165,0.0,2.0,57,0.00,,OVC095,-99.99,VWS V12.07,2013-02-14 22:42:00,
2013-02-14 17:52:00,39.1,26.0,29.87,SSE,165,0.0,2.0,59,0.00,,OVC095,-99.99,VWS V12.07,2013-02-14 22:52:00,
2013-02-14 18:04:00,38.2,26.3,29.88,SSE,165,0.0,0.0,62,0.00,,OVC095,-99.99,VWS V12.07,2013-02-14 23:04:00,
2013-02-14 18:12:00,37.8,26.0,29.88,SSE,165,0.0,0.0,62,0.00,,OVC095,-99.99,VWS V12.07,2013-02-14 23:12:00,
2013-02-14 18:22:00,37.3,26.3,29.87,SSE,165,0.0,0.0,64,0.00,,OVC095,-99.99,VWS V12.07,2013-02-14 23:22:00,
2013-02-14 18:34:00,36.9,25.9,29.88,SSE,165,0.0,0.0,64,0.00,,OVC095,-99.99,VWS V12.07,2013-02-14 23:34:00,
2013-02-14 18:42:00,36.8,26.1,29.88,SSE,165,0.0,0.0,65,0.00,,OVC095,-99.99,VWS V12.07,2013-02-14 23:42:00,
2013-02-14 18:52:00,36.3,26.4,29.88,SSE,165,0.0,1.0,67,0.00,,OVC095,-99.99,VWS V12.07,2013-02-14 23:52:00,
2013-02-14 19:03:00,36.0,26.8,29.88,SSE,165,0.0,1.0,69,0.00,,OVC095,-99.99,VWS V12.07,2013-02-15 00:03:00,
2013-02-14 19:12:00,35.8,27.0,29.88,SSE,165,0.0,1.0,70,0.00,,OVC095,-99.99,VWS V12.07,2013-02-15 00:12:00,
2013-02-14 19:22:00,35.6,26.8,29.88,SSE,165,0.0,1.0,70,0.00,,OVC095,-99.99,VWS V12.07,2013-02-15 00:22:00,
2013-02-14 19:33:00,36.5,25.1,29.89,South,169,0.0,1.0,63,0.00,,OVC095,-99.99,VWS V12.07,2013-02-15 00:33:00,
2013-02-14 19:42:00,37.3,25.5,29.89,SSE,168,0.0,3.0,62,0.00,,OVC095,-99.99,VWS V12.07,2013-02-15 00:42:00,
2013-02-14 19:52:00,37.3,26.6,29.89,SSW,203,0.0,3.0,65,0.00,,OVC095,-99.99,VWS V12.07,2013-02-15 00:52:00,
2013-02-14 20:04:00,36.9,26.2,29.89,SSW,203,0.0,0.0,65,0.00,,OVC095,-99.99,VWS V12.07,2013-02-15 01:04:00,
2013-02-14 20:12:00,36.6,26.7,29.89,SSW,203,0.0,0.0,67,0.00,,OVC095,-99.99,VWS V12.07,2013-02-15 01:12:00,
2013-02-14 20:22:00,36.0,27.2,29.89,SSW,203,0.0,0.0,70,0.00,,OVC095,-99.99,VWS V12.07,2013-02-15 01:22:00,
2013-02-14 20:33:00,35.9,27.4,29.88,SSW,203,0.0,0.0,71,0.00,,OVC095,-99.99,VWS V12.07,2013-02-15 01:33:00,
2013-02-14 20:42:00,35.8,27.3,29.88,SSW,203,0.0,0.0,71,0.00,,OVC095,-99.99,VWS V12.07,2013-02-15 01:42:00,
2013-02-14 20:52:00,35.6,27.1,29.89,SSW,203,0.0,0.0,71,0.00,,OVC095,-99.99,VWS V12.07,2013-02-15 01:52:00,
2013-02-14 21:04:00,35.8,27.3,29.89,SSW,202,0.0,0.0,71,0.00,,OVC095,-99.99,VWS V12.07,2013-02-15 02:04:00,
2013-02-14 21:12:00,35.6,27.5,29.89,SSW,202,0.0,0.0,72,0.00,,OVC095,-99.99,VWS V12.07,2013-02-15 02:12:00,
2013-02-14 21:22:00,35.3,27.2,29.89,SSW,202,0.0,0.0,72,0.00,,OVC095,-99.99,VWS V12.07,2013-02-15 02:22:00,
2013-02-14 21:33:00,35.0,27.6,29.89,SSW,202,0.0,0.0,74,0.00,,OVC095,-99.99,VWS V12.07,2013-02-15 02:33:00,
2013-02-14 21:42:00,34.4,27.3,29.89,SSW,202,0.0,0.0,75,0.00,,OVC095,-99.99,VWS V12.07,2013-02-15 02:42:00,
2013-02-14 21:52:00,34.0,26.9,29.89,SSW,202,0.0,0.0,75,0.00,,OVC095,-99.99,VWS V12.07,2013-02-15 02:52:00,
2013-02-14 22:04:00,33.4,26.7,29.89,SSW,202,0.0,0.0,76,0.00,,OVC095,-99.99,VWS V12.07,2013-02-15 03:04:00,
2013-02-14 22:12:00,32.9,26.8,29.89,SSW,202,0.0,0.0,78,0.00,,OVC095,-99.99,VWS V12.07,2013-02-15 03:12:00,
2013-02-14 22:22:00,32.7,26.0,29.90,SSW,202,0.0,0.0,76,0.00,,OVC095,-99.99,VWS V12.07,2013-02-15 03:22:00,
2013-02-14 22:34:00,32.8,26.1,29.90,SSW,202,0.0,1.0,76,0.00,,OVC095,-99.99,VWS V12.07,2013-02-15 03:34:00,
2013-02-14 22:42:00,33.8,26.1,29.90,SSE,157,1.0,4.0,73,0.00,,OVC095,-99.99,VWS V12.07,2013-02-15 03:42:00,
2013-02-14 22:52:00,35.0,26.2,29.90,SSE,161,1.0,4.0,70,0.00,,OVC095,-99.99,VWS V12.07,2013-02-15 03:52:00,
2013-02-14 23:04:00,35.0,27.2,29.90,SSE,161,0.0,0.0,73,0.00,,OVC095,-99.99,VWS V12.07,2013-02-15 04:04:00,
2013-02-14 23:12:00,34.6,26.9,29.90,SW,222,0.0,1.0,73,0.00,,OVC095,-99.99,VWS V12.07,2013-02-15 04:12:00,
2013-02-14 23:22:00,34.1,26.4,29.90,SW,222,0.0,1.0,73,0.00,,OVC095,-99.99,VWS V12.07,2013-02-15 04:22:00,
2013-02-14 23:33:00,33.5,26.1,29.90,SW,222,0.0,0.0,74,0.00,,OVC095,-99.99,VWS V12.07,2013-02-15 04:33:00,
2013-02-14 23:42:00,33.1,26.7,29.90,SW,222,0.0,1.0,77,0.00,,OVC095,-99.99,VWS V12.07,2013-02-15 04:42:00,
2013-02-14 23:52:00,32.7,26.3,29.90,SW,222,0.0,1.0,77,0.00,,OVC095,-99.99,VWS V12.07,2013-02-15 04:52:00,